Wind_Speed
19 18 18 17 16 16 15 15 14 14 14 14 14 14 14 14 14 14 14 14 14 13 13 13 13 12 12 12 11 11 10 10 9 9 9 8 8 8 8 8 8 8 7
21 20 20 19 19 18 17 17 17 16 16 16 16 15 16 15 15 15 15 15 15 15 15 15 14 14 13 13 13 12 12 11 11 11 11 11 10 10 10 10 10 9 9
23 22 21 21 20 20 19 19 19 18 18 18 18 18 17 17 17 17 17 17 17 17 17 17 16 16 15 15 14 14 13 13 12 12 12 12 12 12 12 12 12 11 11
24 24 24 23 22 22 21 21 20 20 20 20 20 20 20 20 20 19 19 19 19 19 19 18 18 18 18 17 16 16 15 15 15 14 14 14 14 14 14 14 14 14 14
26 26 25 25 24 24 23 23 23 22 22 22 22 22 21 21 21 21 21 21 20 20 20 20 20 20 19 19 19 18 18 17 17 16 16 16 16 16 16 16 16 16 16
28 27 27 27 26 26 25 25 25 25 25 24 24 24 23 23 23 23 22 22 22 21 21 21 21 21 21 21 21 20 20 20 19 19 18 18 18 18 18 18 18 18 18
29 29 29 28 28 27 27 26 26 26 26 26 26 26 25 25 25 24 24 24 24 23 23 23 23 23 23 22 22 22 22 21 21 21 21 21 20 20 20 20 20 20 20
30 30 30 30 29 29 28 28 28 27 27 28 27 27 27 27 26 26 26 26 26 25 25 24 24 24 24 24 24 24 24 23 23 23 23 23 23 23 23 23 23 23 23
31 31 31 31 31 31 30 30 30 29 29 29 28 28 28 28 28 28 29 28 28 27 27 26 26 25 25 25 25 25 25 25 25 25 25 25 25 25 26 26 26 26 26
32 32 32 32 32 32 32 31 31 31 31 30 30 29 29 29 29 30 30 30 30 29 29 28 28 27 27 27 27 27 27 27 27 27 27 27 27 28 28 28 28 28 28
33 33 33 33 33 33 33 33 33 33 32 31 31 30 30 31 31 31 31 31 31 30 30 30 29 29 29 29 29 29 29 29 28 28 29 29 30 30 30 31 31 31 31
33 34 34 34 34 34 34 34 33 33 33 32 32 32 32 31 32 32 32 32 32 32 31 31 31 31 31 31 30 30 30 30 30 30 30 31 31 32 32 33 33 33 33
35 35 35 35 35 35 35 35 34 33 33 33 34 34 33 33 33 34 34 34 34 33 33 33 33 33 32 32 32 32 31 31 32 32 32 32 33 33 34 34 34 35 35
35 35 36 36 36 36 35 35 35 34 34 35 35 35 35 35 34 35 35 35 35 35 35 35 35 34 34 34 34 34 33 33 33 33 34 34 35 35 35 35 35 35 36
34 35 36 37 37 37 37 36 36 36 36 36 36 36 36 36 36 35 36 36 35 35 36 36 37 37 36 36 36 36 35 35 35 35 35 35 35 35 35 35 35 36 37
35 36 37 37 37 38 38 38 38 38 38 38 38 38 37 37 38 37 37 37 36 36 36 37 37 37 38 38 38 38 37 37 37 36 37 37 37 37 36 36 37 38 38
36 36 37 38 38 39 39 39 39 40 39 39 39 39 39 39 38 38 38 37 37 38 38 38 38 39 39 39 39 39 38 38 39 39 38 38 38 39 39 39 39 39 39
36 37 37 38 38 39 40 41 40 40 40 40 40 40 40 40 39 39 38 39 39 40 40 40 40 40 41 41 41 40 40 40 40 40 40 40 40 40 40 41 41 41 41
37 37 37 37 38 39 40 41 41 42 41 41 42 41 40 41 41 41 40 40 40 41 41 41 41 42 42 42 42 42 43 42 42 42 42 42 42 42 42 42 42 43 43
38 38 38 38 38 39 40 41 41 42 42 42 42 42 42 41 42 42 42 42 42 42 42 42 42 43 44 43 44 44 45 44 44 44 44 43 43 43 43 44 44 44 45
39 39 39 39 39 39 40 40 41 42 42 43 43 43 43 42 42 43 43 43 43 44 44 44 44 44 45 45 46 46 46 46 46 46 45 45 45 45 45 45 45 46 46
40 40 40 40 40 40 40 41 42 42 42 43 43 43 44 44 44 44 44 43 44 45 45 45 45 46 46 47 48 48 47 47 47 46 47 46 46 46 47 47 47 48 48
41 41 40 40 40 41 41 41 42 42 43 43 43 44 45 45 45 46 45 45 45 46 46 46 46 46 47 48 49 49 49 48 48 48 47 47 48 48 49 49 49 48 49
42 42 42 42 42 42 42 42 42 43 43 44 45 45 46 46 46 47 47 46 46 47 48 48 48 48 48 48 49 50 50 50 50 49 49 49 49 49 49 50 50 49 49
41 42 43 43 43 43 43 43 43 43 44 45 45 46 46 47 48 48 48 48 49 48 49 49 49 49 49 49 50 50 51 51 52 51 51 51 51 51 50 49 49 49 48
39 39 40 41 42 43 43 44 44 44 45 46 46 47 47 48 48 48 48 48 49 49 49 49 50 50 50 50 50 51 52 52 51 52 52 52 52 50 49 49 49 49 49
Wind_Direction
250 250 250 251 250 253 256 258 261 265 266 266 267 266 261 260 258 257 258 256 255 256 255 254 255 257 258 259 258 257 259 261 264 264 264 262 259 259 260 257 253 251 252
250 250 251 252 252 252 255 257 260 264 266 266 267 267 263 261 259 257 258 257 256 257 258 256 257 258 259 260 260 259 261 263 266 266 267 266 264 263 264 262 259 258 260
251 251 252 253 253 253 254 257 259 263 265 266 267 266 264 263 260 259 257 258 257 258 258 258 258 258 260 261 260 261 263 265 267 267 268 268 266 265 264 262 262 262 263
252 252 253 253 254 254 255 257 259 262 265 266 266 265 264 263 260 258 259 259 258 258 257 257 259 258 259 260 261 261 263 265 266 266 267 267 266 266 266 264 263 263 264
252 252 253 254 255 255 256 258 260 263 264 266 266 266 265 263 262 259 258 258 258 257 257 257 259 258 258 260 261 262 262 264 265 266 267 267 267 267 266 266 265 265 265
253 252 252 253 255 255 257 258 260 261 263 265 266 265 265 262 262 260 258 256 256 256 257 258 259 259 259 261 262 263 263 264 265 265 266 266 266 265 265 265 265 264 264
252 252 252 253 254 256 256 258 260 261 263 264 265 264 263 261 260 260 258 257 257 257 257 258 259 261 261 261 263 265 265 265 266 265 265 265 265 265 265 266 265 265 265
252 252 252 253 254 255 256 257 259 261 262 262 263 262 261 260 259 258 257 257 257 257 257 258 260 261 262 263 264 266 265 266 267 266 266 266 266 265 265 266 267 267 267
251 252 253 253 254 255 257 258 259 259 260 260 260 261 260 260 259 258 257 257 256 256 258 258 259 261 262 263 265 266 266 266 266 266 267 267 267 266 266 266 267 267 267
252 252 253 253 254 255 257 258 258 258 258 259 258 259 260 260 260 258 256 255 255 256 259 260 260 261 262 263 265 265 265 266 266 266 267 267 267 267 268 268 268 268 268
252 252 253 254 255 256 258 258 258 257 257 257 257 258 259 260 260 259 256 255 255 257 258 259 261 262 262 263 265 265 266 266 267 268 268 267 267 268 269 269 269 269 269
253 252 252 254 255 256 257 257 258 257 256 256 257 258 259 259 260 259 257 255 255 256 258 259 261 262 263 263 264 265 265 266 266 267 268 268 268 269 270 270 270 270 270
254 254 253 254 255 256 256 257 257 256 256 257 258 258 260 260 261 260 258 256 256 257 259 260 260 261 262 262 263 264 265 266 267 267 269 269 270 270 271 272 272 271 271
255 255 255 255 255 255 255 256 256 256 257 257 258 259 260 261 262 261 258 257 258 258 258 259 260 261 262 262 263 264 265 266 267 268 269 270 271 272 272 273 273 272 272
256 256 256 256 256 254 254 253 254 256 258 259 259 260 260 261 262 262 259 257 258 258 259 259 260 261 262 262 264 265 265 267 267 268 269 270 271 272 274 273 272 272 272
257 257 257 256 256 255 254 254 254 255 256 257 258 259 260 262 262 262 259 257 257 258 259 261 262 263 262 262 263 265 266 266 267 267 269 270 271 272 273 273 274 273 273
257 258 258 256 256 255 254 254 255 255 255 257 258 258 259 261 262 261 258 256 257 258 259 261 262 264 264 264 264 266 267 267 268 268 269 270 271 272 273 273 273 274 273
258 259 259 257 257 256 255 255 256 257 257 257 258 259 260 261 260 260 257 257 258 259 260 261 263 264 264 265 266 266 267 268 268 269 269 270 270 271 272 273 273 273 273
258 259 259 258 258 257 256 256 257 258 258 258 258 259 260 260 260 259 257 258 259 261 261 262 263 264 265 266 266 267 268 268 269 270 270 270 270 271 273 273 273 273 274
258 259 259 259 259 258 258 257 257 258 259 259 258 260 260 261 261 258 258 258 260 262 262 263 263 264 265 266 267 267 268 269 269 269 270 270 270 272 273 273 273 274 274
258 259 260 260 260 259 259 259 258 258 258 259 259 260 259 260 259 258 259 260 262 263 263 263 264 264 266 267 267 267 268 269 269 268 269 269 270 271 272 273 273 274 275
258 258 259 259 260 260 260 260 260 259 258 258 258 259 258 259 257 257 259 262 263 263 263 263 265 265 266 267 267 267 267 268 268 269 269 269 271 271 272 272 273 274 275
257 258 258 259 259 260 260 261 261 259 259 259 259 259 259 259 257 258 259 262 263 262 262 263 265 266 267 268 267 268 268 268 268 269 269 270 271 272 273 273 273 274 275
258 258 258 259 259 260 260 261 261 260 260 259 259 259 260 260 259 259 260 263 263 263 263 264 265 266 268 268 268 268 269 269 269 269 269 270 272 272 273 273 273 273 274
259 259 259 259 259 260 260 260 261 261 260 260 260 260 260 259 259 260 262 263 263 263 264 265 266 267 269 269 269 268 268 270 271 271 271 271 271 272 272 272 272 272 273
261 260 260 259 259 260 260 260 261 261 261 261 261 260 259 259 260 261 264 264 263 263 264 266 267 268 269 270 269 269 270 271 271 271 272 271 270 270 271 271 271 272 273
Height
5841 5841 5842 5843 5844 5844 5845 5846 5846 5847 5847 5848 5848 5849 5849 5849 5850 5850 5850 5851 5851 5851 5852 5852 5852 5852 5852 5852 5852 5852 5852 5852 5852 5852 5852 5852 5852 5852 5851 5851 5851 5851 5850
5837 5838 5839 5840 5841 5842 5842 5843 5844 5844 5845 5845 5845 5846 5846 5847 5847 5848 5848 5848 5849 5849 5849 5850 5850 5850 5850 5850 5850 5850 5850 5850 5850 5850 5850 5850 5850 5850 5850 5849 5849 5849 5848
5833 5834 5835 5836 5837 5838 5839 5840 5840 5841 5841 5842 5842 5843 5843 5844 5845 5845 5845 5846 5846 5846 5847 5847 5847 5847 5848 5848 5848 5848 5848 5848 5848 5848 5848 5848 5848 5847 5847 5847 5847 5847 5846
5829 5830 5831 5832 5834 5835 5836 5836 5837 5838 5838 5839 5839 5840 5840 5841 5841 5842 5842 5842 5843 5843 5843 5844 5844 5844 5845 5845 5845 5845 5845 5845 5845 5845 5845 5845 5845 5845 5845 5845 5844 5844 5844
5824 5826 5827 5828 5829 5830 5832 5833 5833 5834 5834 5835 5835 5836 5836 5837 5837 5838 5838 5839 5839 5840 5840 5840 5841 5841 5841 5842 5842 5842 5842 5842 5842 5842 5842 5842 5842 5842 5842 5841 5841 5841 5841
5819 5821 5822 5824 5825 5826 5827 5828 5829 5829 5830 5830 5831 5831 5831 5832 5833 5833 5834 5835 5835 5836 5836 5836 5837 5837 5838 5838 5838 5838 5838 5838 5839 5839 5839 5838 5838 5838 5838 5838 5838 5837 5837
5814 5816 5817 5818 5820 5821 5822 5823 5824 5824 5825 5825 5826 5826 5826 5827 5828 5829 5829 5830 5831 5832 5832 5832 5833 5833 5834 5834 5834 5834 5834 5834 5835 5835 5834 5834 5834 5834 5834 5834 5833 5833 5833
5808 5810 5811 5813 5814 5815 5816 5817 5818 5819 5819 5820 5820 5820 5821 5821 5822 5823 5824 5825 5826 5827 5827 5828 5828 5829 5829 5829 5829 5830 5830 5830 5830 5830 5830 5830 5830 5829 5829 5829 5829 5828 5828
5802 5804 5805 5807 5808 5809 5810 5811 5812 5813 5813 5814 5814 5815 5815 5816 5817 5818 5819 5820 5821 5822 5822 5823 5823 5824 5824 5824 5824 5824 5825 5825 5825 5825 5825 5825 5825 5824 5824 5824 5823 5823 5823
5796 5797 5799 5800 5802 5803 5804 5805 5806 5806 5807 5808 5808 5809 5810 5810 5811 5812 5813 5814 5815 5816 5817 5818 5818 5818 5819 5819 5819 5819 5819 5819 5819 5819 5819 5819 5819 5818 5818 5818 5818 5817 5817
5789 5791 5792 5794 5795 5796 5797 5798 5799 5800 5801 5801 5802 5803 5804 5804 5805 5806 5807 5808 5809 5810 5811 5812 5812 5812 5813 5813 5813 5813 5813 5813 5813 5813 5813 5813 5813 5812 5812 5811 5811 5811 5810
5782 5784 5785 5787 5788 5789 5790 5791 5792 5793 5794 5795 5796 5797 5797 5798 5799 5799 5800 5802 5802 5804 5805 5805 5806 5806 5806 5806 5806 5807 5807 5806 5807 5807 5806 5806 5806 5805 5805 5805 5804 5804 5803
5775 5777 5778 5780 5781 5782 5783 5784 5785 5786 5788 5789 5789 5790 5791 5791 5792 5793 5793 5795 5796 5797 5797 5798 5799 5799 5800 5800 5800 5800 5800 5800 5800 5800 5800 5799 5799 5798 5797 5797 5796 5796 5796
5768 5769 5771 5772 5774 5775 5776 5777 5778 5779 5780 5781 5782 5783 5783 5784 5785 5785 5786 5787 5788 5789 5790 5791 5791 5792 5792 5793 5793 5793 5793 5793 5793 5793 5792 5792 5791 5791 5790 5789 5788 5788 5787
5761 5762 5763 5764 5766 5767 5768 5770 5771 5772 5773 5774 5774 5775 5776 5776 5777 5777 5778 5780 5781 5781 5782 5783 5783 5784 5785 5785 5785 5785 5786 5785 5785 5785 5785 5784 5783 5783 5782 5781 5780 5779 5779
5753 5754 5755 5756 5758 5759 5761 5762 5763 5764 5765 5766 5766 5767 5768 5768 5769 5769 5770 5772 5773 5773 5774 5775 5775 5776 5776 5777 5777 5777 5777 5777 5777 5777 5777 5776 5776 5775 5774 5773 5772 5771 5770
5745 5745 5747 5748 5749 5751 5752 5753 5754 5755 5756 5757 5758 5758 5759 5760 5760 5761 5762 5763 5764 5765 5766 5767 5767 5768 5768 5768 5769 5769 5769 5769 5768 5768 5768 5768 5767 5766 5765 5764 5763 5762 5761
5736 5737 5738 5739 5740 5742 5743 5744 5745 5746 5747 5748 5749 5749 5750 5751 5751 5752 5754 5755 5756 5756 5757 5758 5759 5759 5759 5759 5759 5760 5760 5760 5759 5759 5759 5758 5758 5757 5756 5755 5754 5752 5751
5727 5728 5729 5730 5731 5733 5734 5735 5736 5737 5738 5739 5739 5740 5741 5742 5742 5743 5745 5746 5746 5747 5748 5749 5749 5750 5749 5750 5750 5750 5750 5750 5750 5749 5749 5748 5748 5747 5746 5745 5743 5742 5741
5718 5719 5720 5721 5722 5723 5724 5725 5726 5727 5728 5729 5730 5731 5731 5732 5733 5734 5735 5736 5737 5738 5738 5739 5739 5739 5740 5740 5740 5740 5740 5740 5739 5739 5739 5738 5737 5737 5735 5734 5733 5732 5731
5708 5710 5711 5712 5713 5714 5714 5715 5716 5717 5718 5719 5720 5721 5721 5722 5723 5724 5725 5726 5727 5728 5728 5729 5729 5729 5729 5729 5729 5729 5729 5729 5728 5728 5727 5727 5727 5726 5724 5723 5722 5721 5719
5699 5700 5701 5702 5703 5703 5704 5705 5706 5707 5708 5709 5709 5710 5711 5712 5713 5714 5714 5715 5716 5717 5717 5717 5718 5718 5718 5718 5718 5717 5718 5718 5717 5717 5716 5716 5715 5714 5713 5712 5710 5709 5708
5688 5689 5690 5692 5692 5693 5694 5694 5695 5696 5697 5698 5699 5700 5700 5701 5702 5703 5703 5704 5704 5705 5706 5706 5706 5707 5707 5706 5705 5705 5705 5706 5706 5705 5704 5703 5703 5702 5700 5699 5698 5696 5695
5677 5678 5679 5681 5682 5682 5683 5684 5684 5685 5686 5687 5687 5688 5689 5690 5690 5691 5692 5692 5693 5693 5694 5694 5694 5694 5694 5694 5693 5692 5692 5692 5692 5693 5692 5691 5689 5688 5687 5686 5684 5683 5682
5666 5667 5668 5669 5670 5671 5671 5672 5673 5674 5675 5675 5676 5677 5677 5678 5678 5679 5680 5680 5681 5681 5681 5682 5682 5682 5682 5681 5681 5680 5679 5679 5678 5678 5679 5678 5676 5675 5673 5672 5671 5670 5669
5655 5655 5656 5657 5658 5659 5659 5661 5662 5662 5663 5664 5664 5665 5665 5665 5666 5667 5667 5667 5668 5668 5669 5669 5669 5669 5668 5668 5667 5667 5666 5665 5665 5664 5664 5664 5663 5662 5660 5659 5658 5657 5656